Meteo pe oră la Bolshie Koryaki

Astăzi, 12 Mai, Miercuri

Timp Temperatura Precipitaţii Vânt Presiune Umiditate
00:00 +10°C° 0 mm 2 m/s 750 mmHg 90%
01:00 +10°C° 0 mm 2 m/s 750 mmHg 93%
02:00 +10°C° 0 mm 2 m/s 750 mmHg 95%
03:00 +10°C° 0 mm 2 m/s 750 mmHg 95%
04:00 +10°C° 0 mm 2 m/s 750 mmHg 95%
05:00 +10°C° 0 mm 2 m/s 751 mmHg 95%
06:00 +12°C° 0 mm 3 m/s 751 mmHg 86%
07:00 +13°C° 0 mm 3 m/s 751 mmHg 78%
08:00 +14°C° 0 mm 4 m/s 751 mmHg 69%
09:00 +15°C° 0 mm 4 m/s 751 mmHg 62%
10:00 +17°C° 0 mm 4 m/s 751 mmHg 54%
11:00 +18°C° 0 mm 3 m/s 751 mmHg 46%
12:00 +18°C° 0 mm 3 m/s 750 mmHg 44%
13:00 +19°C° 0 mm 3 m/s 750 mmHg 43%
14:00 +19°C° 0 mm 3 m/s 749 mmHg 41%
15:00 +19°C° 0 mm 2 m/s 748 mmHg 45%
16:00 +18°C° 0 mm 2 m/s 748 mmHg 49%
17:00 +19°C° 0 mm 1 m/s 747 mmHg 52%
18:00 +17°C° 0 mm 2 m/s 746 mmHg 62%
19:00 +15°C° 0 mm 2 m/s 745 mmHg 72%
20:00 +14°C° 0 mm 2 m/s 745 mmHg 81%
21:00 +13°C° 0.6 mm 3 m/s 744 mmHg 85%
22:00 +12°C° 0.6 mm 4 m/s 744 mmHg 89%
23:00 +12°C° 0.6 mm 5 m/s 743 mmHg 93%

Mâine, 13 Mai, Joi

Timp Temperatura Precipitaţii Vânt Presiune Umiditate
00:00 +10°C° 0.1 mm 5 m/s 743 mmHg 92%
01:00 +9°C° 0.1 mm 5 m/s 744 mmHg 92%
02:00 +8°C° 0.1 mm 4 m/s 744 mmHg 91%
03:00 +7°C° 0 mm 4 m/s 744 mmHg 92%
04:00 +7°C° 0 mm 4 m/s 744 mmHg 93%
05:00 +6°C° 0 mm 4 m/s 744 mmHg 94%
06:00 +7°C° 0.2 mm 4 m/s 744 mmHg 93%
07:00 +7°C° 0.2 mm 4 m/s 744 mmHg 91%
08:00 +8°C° 0.2 mm 5 m/s 744 mmHg 90%
09:00 +9°C° 0.1 mm 5 m/s 744 mmHg 83%
10:00 +10°C° 0.1 mm 5 m/s 744 mmHg 76%
11:00 +12°C° 0.1 mm 5 m/s 743 mmHg 70%
12:00 +13°C° 0.2 mm 5 m/s 743 mmHg 69%
13:00 +13°C° 0.2 mm 5 m/s 743 mmHg 67%
14:00 +14°C° 0.2 mm 4 m/s 743 mmHg 66%
15:00 +14°C° 0.2 mm 4 m/s 742 mmHg 67%
16:00 +14°C° 0.2 mm 3 m/s 742 mmHg 67%
17:00 +14°C° 0.2 mm 3 m/s 742 mmHg 68%
18:00 +12°C° 0 mm 3 m/s 742 mmHg 75%
19:00 +10°C° 0 mm 2 m/s 742 mmHg 82%
20:00 +9°C° 0 mm 2 m/s 742 mmHg 89%
21:00 +8°C° 0 mm 2 m/s 742 mmHg 91%
22:00 +7°C° 0 mm 2 m/s 742 mmHg 93%
23:00 +6°C° 0 mm 2 m/s 742 mmHg 95%

Poimâine, 14 Mai, Vineri

Timp Temperatura Precipitaţii Vânt Presiune Umiditate
00:00 +6°C° 0 mm 2 m/s 742 mmHg 95%
01:00 +6°C° 0 mm 2 m/s 742 mmHg 95%
02:00 +6°C° 0 mm 2 m/s 742 mmHg 96%
03:00 +6°C° 0 mm 2 m/s 742 mmHg 91%
04:00 +7°C° 0 mm 3 m/s 742 mmHg 87%
05:00 +8°C° 0 mm 3 m/s 742 mmHg 83%
06:00 +10°C° 0 mm 3 m/s 743 mmHg 79%
07:00 +11°C° 0 mm 4 m/s 743 mmHg 75%
08:00 +12°C° 0 mm 4 m/s 743 mmHg 70%
09:00 +13°C° 0 mm 4 m/s 743 mmHg 67%
10:00 +14°C° 0 mm 4 m/s 743 mmHg 65%
11:00 +15°C° 0 mm 4 m/s 743 mmHg 62%
12:00 +18°C° 0 mm 4 m/s 742 mmHg 58%
13:00 +19°C° 0 mm 4 m/s 742 mmHg 55%
14:00 +20°C° 0 mm 4 m/s 742 mmHg 52%
15:00 +20°C° 0.3 mm 4 m/s 741 mmHg 60%
16:00 +19°C° 0.3 mm 4 m/s 741 mmHg 68%
17:00 +18°C° 0.3 mm 4 m/s 740 mmHg 75%
18:00 +17°C° 1.3 mm 4 m/s 740 mmHg 82%
19:00 +16°C° 1.3 mm 3 m/s 739 mmHg 88%
20:00 +14°C° 1.3 mm 3 m/s 739 mmHg 95%
21:00 +14°C° 0.4 mm 2 m/s 739 mmHg 95%
22:00 +14°C° 0.4 mm 2 m/s 739 mmHg 96%
23:00 +13°C° 0.4 mm 2 m/s 739 mmHg 97%

15 Mai, Sâmbătă

Timp Temperatura Precipitaţii Vânt Presiune Umiditate
00:00 +13°C° 0 mm 2 m/s 739 mmHg 97%
01:00 +12°C° 0 mm 2 m/s 739 mmHg 97%
02:00 +11°C° 0 mm 1 m/s 739 mmHg 97%
03:00 +11°C° 0 mm 1 m/s 739 mmHg 97%
04:00 +11°C° 0 mm 1 m/s 739 mmHg 97%
05:00 +11°C° 0 mm 1 m/s 739 mmHg 97%
06:00 +13°C° 0 mm 1 m/s 739 mmHg 92%
07:00 +15°C° 0 mm 1 m/s 739 mmHg 86%
08:00 +16°C° 0 mm 2 m/s 739 mmHg 81%
09:00 +18°C° 0.1 mm 2 m/s 739 mmHg 74%
10:00 +19°C° 0.1 mm 2 m/s 739 mmHg 68%
11:00 +20°C° 0.1 mm 2 m/s 738 mmHg 61%
12:00 +20°C° 0.5 mm 2 m/s 738 mmHg 62%
13:00 +20°C° 0.5 mm 2 m/s 738 mmHg 63%
14:00 +20°C° 0.5 mm 2 m/s 738 mmHg 65%
15:00 +19°C° 1.2 mm 2 m/s 738 mmHg 72%
16:00 +18°C° 1.2 mm 3 m/s 738 mmHg 79%
17:00 +17°C° 1.2 mm 3 m/s 738 mmHg 86%
18:00 +16°C° 0.6 mm 3 m/s 738 mmHg 88%
19:00 +14°C° 0.6 mm 3 m/s 738 mmHg 91%
20:00 +13°C° 0.6 mm 3 m/s 739 mmHg 93%
21:00 +12°C° 0 mm 3 m/s 739 mmHg 94%
22:00 +11°C° 0 mm 3 m/s 739 mmHg 96%
23:00 +10°C° 0 mm 2 m/s 740 mmHg 97%

16 Mai, Duminică

Timp Temperatura Precipitaţii Vânt Presiune Umiditate
00:00 +10°C° 0 mm 2 m/s 740 mmHg 97%
01:00 +9°C° 0 mm 2 m/s 741 mmHg 97%
02:00 +9°C° 0 mm 2 m/s 741 mmHg 97%
03:00 +9°C° 0 mm 2 m/s 741 mmHg 97%
04:00 +9°C° 0 mm 2 m/s 742 mmHg 96%
05:00 +9°C° 0 mm 2 m/s 742 mmHg 96%
06:00 +10°C° 0 mm 3 m/s 742 mmHg 90%
07:00 +12°C° 0 mm 3 m/s 743 mmHg 85%
08:00 +13°C° 0 mm 3 m/s 743 mmHg 80%
09:00 +14°C° 0 mm 3 m/s 743 mmHg 71%
10:00 +17°C° 0 mm 3 m/s 744 mmHg 63%
11:00 +18°C° 0 mm 3 m/s 744 mmHg 55%
12:00 +19°C° 0 mm 3 m/s 744 mmHg 52%
13:00 +20°C° 0 mm 3 m/s 744 mmHg 50%
14:00 +20°C° 0 mm 2 m/s 744 mmHg 48%
15:00 +20°C° 0 mm 2 m/s 744 mmHg 50%
16:00 +20°C° 0 mm 2 m/s 744 mmHg 52%
17:00 +21°C° 0 mm 1 m/s 744 mmHg 54%
18:00 +19°C° 0 mm 1 m/s 744 mmHg 61%
19:00 +16°C° 0 mm 1 m/s 745 mmHg 69%
20:00 +14°C° 0 mm 1 m/s 745 mmHg 76%
21:00 +14°C° 0 mm 1 m/s 745 mmHg 78%
22:00 +13°C° 0 mm 1 m/s 745 mmHg 79%
23:00 +13°C° 0 mm 2 m/s 745 mmHg 80%

17 Mai, Luni

Timp Temperatura Precipitaţii Vânt Presiune Umiditate
00:00 +12°C° 0 mm 2 m/s 745 mmHg 83%
01:00 +10°C° 0 mm 2 m/s 745 mmHg 85%
02:00 +10°C° 0 mm 2 m/s 745 mmHg 88%
03:00 +10°C° 0 mm 2 m/s 745 mmHg 87%
04:00 +11°C° 0 mm 3 m/s 745 mmHg 86%
05:00 +11°C° 0 mm 3 m/s 744 mmHg 85%
06:00 +13°C° 0 mm 4 m/s 744 mmHg 80%
07:00 +15°C° 0 mm 4 m/s 744 mmHg 74%
08:00 +17°C° 0 mm 5 m/s 743 mmHg 69%
09:00 +19°C° 0 mm 5 m/s 743 mmHg 65%
10:00 +21°C° 0 mm 6 m/s 743 mmHg 62%
11:00 +23°C° 0 mm 6 m/s 742 mmHg 58%
12:00 +24°C° 0 mm 6 m/s 742 mmHg 57%
13:00 +26°C° 0 mm 6 m/s 741 mmHg 56%
14:00 +27°C° 0 mm 6 m/s 741 mmHg 55%
15:00 +27°C° 0 mm 6 m/s 741 mmHg 58%
16:00 +26°C° 0 mm 6 m/s 741 mmHg 61%
17:00 +26°C° 0 mm 6 m/s 740 mmHg 64%
18:00 +25°C° 0.1 mm 5 m/s 740 mmHg 67%
19:00 +22°C° 0.1 mm 5 m/s 740 mmHg 70%
20:00 +21°C° 0.1 mm 5 m/s 740 mmHg 73%
21:00 +20°C° 0 mm 5 m/s 740 mmHg 75%
22:00 +19°C° 0 mm 4 m/s 740 mmHg 76%
23:00 +18°C° 0 mm 4 m/s 740 mmHg 77%
Arată mai mult

Formular de consimțământ

Meteoprog și furnizorii noștri de servicii pot stoca și accesa date personale, precum cookies, identificatori de dispozitiv sau alte tehnologii similare pe dispozitivul dumneavoastră și procesa astfel de date pentru a personaliza conținutul și reclamele, dar și pentru a oferi caracteristici de social media și pentru a analiza traficul.

  • Stocarea și/sau accesarea informațiilor pe dispozitivul dumneavoastră

    Cookies, identificatori de dispozitiv sau alte informații pot fi stocate sau accesate pe dispozitiv în scopurile indicate mai sus.

  • Reclame și conținut personalizat, evaluarea reclamelor și a conținutului, informații despre audiențe și dezvoltarea produselor

    Reclamele și conținutul pot fi personalizate pe baza unui profil. Pot fi adăugate date suplimentare pentru a personaliza mai bine reclamele și conținutul. Performanța reclamelor și conținutului poate fi măsurată. Pot fi obținute informații despre utilizatorii care au văzut reclamele și conținutul. Aceste date pot fi utilizate pentru a dezvolta sau îmbunătăți experiența utilizatorilor, sistemele și software-ul.

Dând clic pe ‘Sunt de acord’, permiteți utilizarea cookie-urilor menționate, a identificatorilor de dispozitiv, balizelor web sau altor tehnologii similare. Setările pot fi modificate din browser-ul dispozitivului dumneavoastră.

În anumite scopuri, interesele legitime pot prima asupra consimțământului. Puteți citi mai multe informații în acest sens în Politica privind Confidențialitatea Datelor și Cookie.